• In Österreich
  • Länderverzeichnis
  • Für 7 Tage
  • Wassertemperatur
  • Satellitenkarten
  • Wetterkarte
  • News
  • Widgets
  • user-avatar
    Anmelden

    Stündliche Wetter Kaftyrevo

    Heute, 20 August, Montag

    Zeit Temperatur Niederschläge Wind Luftdruck Luftfeuchtigkeit
    00:00 +15°C° 0 mm 2 m/S 739 mmHg 95%
    01:00 +15°C° 0 mm 2 m/S 739 mmHg 95%
    02:00 +15°C° 0 mm 2 m/S 739 mmHg 95%
    03:00 +15°C° 0 mm 2 m/S 739 mmHg 95%
    04:00 +15°C° 0 mm 2 m/S 739 mmHg 96%
    05:00 +15°C° 0 mm 2 m/S 738 mmHg 96%
    06:00 +16°C° 0 mm 2 m/S 738 mmHg 93%
    07:00 +17°C° 0 mm 2 m/S 738 mmHg 89%
    08:00 +18°C° 0 mm 2 m/S 738 mmHg 86%
    09:00 +19°C° 0,2 mm 3 m/S 738 mmHg 83%
    10:00 +20°C° 0,2 mm 3 m/S 738 mmHg 80%
    11:00 +21°C° 0,2 mm 3 m/S 738 mmHg 77%
    12:00 +21°C° 0,7 mm 3 m/S 738 mmHg 79%
    13:00 +21°C° 0,7 mm 3 m/S 737 mmHg 80%
    14:00 +21°C° 0,7 mm 3 m/S 737 mmHg 81%
    15:00 +21°C° 0,5 mm 3 m/S 737 mmHg 83%
    16:00 +21°C° 0,5 mm 2 m/S 736 mmHg 85%
    17:00 +20°C° 0,5 mm 2 m/S 736 mmHg 87%
    18:00 +20°C° 0,1 mm 2 m/S 735 mmHg 89%
    19:00 +19°C° 0,1 mm 2 m/S 735 mmHg 91%
    20:00 +18°C° 0,1 mm 2 m/S 735 mmHg 93%
    21:00 +18°C° 0,1 mm 2 m/S 734 mmHg 93%
    22:00 +17°C° 0,1 mm 3 m/S 734 mmHg 94%
    23:00 +17°C° 0,1 mm 3 m/S 733 mmHg 94%

    Morgen, 21 August, Dienstag

    Zeit Temperatur Niederschläge Wind Luftdruck Luftfeuchtigkeit
    00:00 +17°C° 0 mm 4 m/S 733 mmHg 94%
    01:00 +17°C° 0 mm 4 m/S 732 mmHg 94%
    02:00 +17°C° 0 mm 4 m/S 732 mmHg 94%
    03:00 +17°C° 0,1 mm 4 m/S 731 mmHg 94%
    04:00 +16°C° 0,1 mm 5 m/S 730 mmHg 94%
    05:00 +16°C° 0,1 mm 5 m/S 730 mmHg 94%
    06:00 +16°C° 0,4 mm 5 m/S 730 mmHg 93%
    07:00 +17°C° 0,4 mm 5 m/S 729 mmHg 92%
    08:00 +17°C° 0,4 mm 6 m/S 729 mmHg 91%
    09:00 +17°C° 0,4 mm 6 m/S 729 mmHg 85%
    10:00 +19°C° 0,4 mm 6 m/S 730 mmHg 80%
    11:00 +19°C° 0,4 mm 6 m/S 730 mmHg 74%
    12:00 +19°C° 0,2 mm 6 m/S 730 mmHg 71%
    13:00 +17°C° 0,2 mm 6 m/S 731 mmHg 68%
    14:00 +17°C° 0,2 mm 7 m/S 731 mmHg 65%
    15:00 +16°C° 0 mm 6 m/S 732 mmHg 67%
    16:00 +16°C° 0 mm 5 m/S 732 mmHg 68%
    17:00 +15°C° 0 mm 5 m/S 733 mmHg 70%
    18:00 +14°C° 0 mm 4 m/S 733 mmHg 76%
    19:00 +12°C° 0 mm 4 m/S 734 mmHg 82%
    20:00 +11°C° 0 mm 3 m/S 734 mmHg 89%
    21:00 +11°C° 0 mm 3 m/S 734 mmHg 89%
    22:00 +11°C° 0 mm 3 m/S 735 mmHg 90%
    23:00 +11°C° 0 mm 4 m/S 735 mmHg 90%

    übermorgen, 22 August, Mittwoch

    Zeit Temperatur Niederschläge Wind Luftdruck Luftfeuchtigkeit
    00:00 +10°C° 0 mm 4 m/S 735 mmHg 91%
    01:00 +10°C° 0 mm 4 m/S 736 mmHg 91%
    02:00 +8°C° 0 mm 4 m/S 736 mmHg 92%
    03:00 +8°C° 0 mm 4 m/S 736 mmHg 92%
    04:00 +8°C° 0 mm 4 m/S 737 mmHg 92%
    05:00 +7°C° 0 mm 4 m/S 737 mmHg 92%
    06:00 +10°C° 0 mm 4 m/S 738 mmHg 84%
    07:00 +10°C° 0 mm 5 m/S 738 mmHg 76%
    08:00 +12°C° 0 mm 5 m/S 739 mmHg 67%
    09:00 +13°C° 0 mm 5 m/S 739 mmHg 61%
    10:00 +14°C° 0 mm 5 m/S 740 mmHg 54%
    11:00 +15°C° 0 mm 5 m/S 740 mmHg 48%
    12:00 +15°C° 0 mm 5 m/S 740 mmHg 47%
    13:00 +16°C° 0 mm 5 m/S 740 mmHg 45%
    14:00 +16°C° 0 mm 5 m/S 741 mmHg 44%
    15:00 +17°C° 0 mm 4 m/S 741 mmHg 47%
    16:00 +17°C° 0 mm 4 m/S 741 mmHg 50%
    17:00 +16°C° 0 mm 3 m/S 741 mmHg 53%
    18:00 +13°C° 0 mm 3 m/S 742 mmHg 60%
    19:00 +13°C° 0 mm 2 m/S 742 mmHg 67%
    20:00 +10°C° 0 mm 2 m/S 742 mmHg 74%
    21:00 +9°C° 0 mm 2 m/S 743 mmHg 76%
    22:00 +8°C° 0 mm 2 m/S 743 mmHg 79%
    23:00 +8°C° 0 mm 2 m/S 743 mmHg 82%

    23 August, Donnerstag

    Zeit Temperatur Niederschläge Wind Luftdruck Luftfeuchtigkeit
    00:00 +8°C° 0 mm 2 m/S 743 mmHg 83%
    01:00 +7°C° 0 mm 2 m/S 744 mmHg 84%
    02:00 +7°C° 0 mm 2 m/S 744 mmHg 85%
    03:00 +7°C° 0 mm 2 m/S 744 mmHg 85%
    04:00 +7°C° 0 mm 2 m/S 744 mmHg 86%
    05:00 +7°C° 0 mm 2 m/S 744 mmHg 86%
    06:00 +9°C° 0 mm 2 m/S 744 mmHg 78%
    07:00 +12°C° 0 mm 2 m/S 744 mmHg 71%
    08:00 +13°C° 0 mm 3 m/S 744 mmHg 64%
    09:00 +16°C° 0 mm 3 m/S 744 mmHg 59%
    10:00 +17°C° 0 mm 3 m/S 744 mmHg 54%
    11:00 +19°C° 0 mm 3 m/S 744 mmHg 49%
    12:00 +19°C° 0 mm 3 m/S 744 mmHg 48%
    13:00 +20°C° 0 mm 3 m/S 744 mmHg 48%
    14:00 +20°C° 0 mm 3 m/S 743 mmHg 47%
    15:00 +20°C° 0 mm 3 m/S 743 mmHg 51%
    16:00 +20°C° 0 mm 2 m/S 743 mmHg 55%
    17:00 +19°C° 0 mm 2 m/S 743 mmHg 58%
    18:00 +17°C° 0 mm 2 m/S 743 mmHg 65%
    19:00 +15°C° 0 mm 2 m/S 743 mmHg 71%
    20:00 +13°C° 0 mm 2 m/S 743 mmHg 78%
    21:00 +12°C° 0 mm 2 m/S 743 mmHg 80%
    22:00 +12°C° 0 mm 2 m/S 743 mmHg 83%
    23:00 +10°C° 0 mm 2 m/S 743 mmHg 85%

    24 August, Freitag

    Zeit Temperatur Niederschläge Wind Luftdruck Luftfeuchtigkeit
    00:00 +10°C° 0 mm 2 m/S 743 mmHg 87%
    01:00 +9°C° 0 mm 2 m/S 743 mmHg 89%
    02:00 +9°C° 0 mm 2 m/S 743 mmHg 92%
    03:00 +9°C° 0 mm 2 m/S 743 mmHg 93%
    04:00 +8°C° 0 mm 2 m/S 743 mmHg 94%
    05:00 +8°C° 0 mm 2 m/S 743 mmHg 95%
    06:00 +10°C° 0 mm 2 m/S 743 mmHg 87%
    07:00 +13°C° 0 mm 2 m/S 743 mmHg 79%
    08:00 +15°C° 0 mm 2 m/S 743 mmHg 71%
    09:00 +17°C° 0 mm 3 m/S 743 mmHg 65%
    10:00 +19°C° 0 mm 3 m/S 743 mmHg 59%
    11:00 +21°C° 0 mm 3 m/S 743 mmHg 53%
    12:00 +21°C° 0 mm 3 m/S 743 mmHg 51%
    13:00 +22°C° 0 mm 3 m/S 742 mmHg 50%
    14:00 +22°C° 0 mm 3 m/S 742 mmHg 48%
    15:00 +22°C° 0 mm 3 m/S 742 mmHg 53%
    16:00 +21°C° 0 mm 2 m/S 742 mmHg 58%
    17:00 +21°C° 0 mm 2 m/S 741 mmHg 62%
    18:00 +19°C° 0 mm 2 m/S 741 mmHg 69%
    19:00 +17°C° 0 mm 2 m/S 741 mmHg 76%
    20:00 +15°C° 0 mm 2 m/S 741 mmHg 83%
    21:00 +14°C° 0 mm 2 m/S 741 mmHg 84%
    22:00 +13°C° 0 mm 2 m/S 742 mmHg 86%
    23:00 +13°C° 0 mm 2 m/S 742 mmHg 88%

    25 August, Samstag

    Zeit Temperatur Niederschläge Wind Luftdruck Luftfeuchtigkeit
    00:00 +12°C° 0 mm 2 m/S 742 mmHg 89%
    01:00 +12°C° 0 mm 2 m/S 741 mmHg 90%
    02:00 +10°C° 0 mm 2 m/S 741 mmHg 91%
    03:00 +10°C° 0 mm 2 m/S 741 mmHg 91%
    04:00 +10°C° 0 mm 2 m/S 741 mmHg 92%
    05:00 +10°C° 0 mm 2 m/S 741 mmHg 92%
    06:00 +13°C° 0 mm 2 m/S 741 mmHg 84%
    07:00 +15°C° 0 mm 2 m/S 741 mmHg 75%
    08:00 +17°C° 0 mm 3 m/S 741 mmHg 67%
    09:00 +18°C° 0 mm 3 m/S 741 mmHg 61%
    10:00 +20°C° 0 mm 3 m/S 741 mmHg 55%
    11:00 +22°C° 0 mm 4 m/S 741 mmHg 49%
    12:00 +22°C° 0 mm 4 m/S 741 mmHg 48%
    13:00 +23°C° 0 mm 4 m/S 741 mmHg 47%
    14:00 +23°C° 0 mm 4 m/S 740 mmHg 46%
    15:00 +24°C° 0 mm 3 m/S 740 mmHg 51%
    16:00 +22°C° 0 mm 3 m/S 740 mmHg 55%
    17:00 +21°C° 0 mm 2 m/S 739 mmHg 60%
    18:00 +19°C° 0 mm 2 m/S 739 mmHg 67%
    19:00 +18°C° 0 mm 2 m/S 739 mmHg 73%
    20:00 +16°C° 0 mm 2 m/S 739 mmHg 79%
    21:00 +15°C° 0 mm 2 m/S 739 mmHg 80%
    22:00 +15°C° 0 mm 2 m/S 739 mmHg 81%
    23:00 +14°C° 0 mm 2 m/S 739 mmHg 81%
    Mehr zeigen